User: anonymous   Login
Location: Quaker Farms
(41.4276°N, 73.1557°W)
Time: 15:09:47
(UTC+00:00)
Language:

Courier 1B - Orbit

View from above orbital plane
View from above orbital plane
View from above satellite
View from above satellite

Ground track
Ground track

The orbit data is extracted from the following two-line orbital elements,

1    58U 60013A   21172.61592381  .00000093  00000-0  79488-5 0  9994
2    58  28.3302  21.7669 0165084 245.6035 112.7200 13.46327448988935
Epoch (UTC): 21 June 2021 14:46:55
Eccentricity: 0.0165084
inclination: 28.3302°
perigee height: 962 km
apogee height: 1209 km
right ascension of ascending node: 21.7669°
argument of perigee: 245.6035°
revolutions per day: 13.46327448
mean anomaly at epoch: 112.7200°
orbit number at epoch: 98893

The dashed part of the orbit path shows where the satellite is in the earth's shadow,  

DLR